BAW314S EGLL-LFPG

Flight info

Callsign BAW314S
Flight time 0h 38m
Altitude 25000
Route MODMI M185 MID UL612 BOGNA DCT HARDY UM605 BIBAX
Aircraft A20N/M-SDE2E3FGHIRWXY/LB1

Departure

Time 2026-05-07 19:39
Airport London Heathrow Airport (EGLL)

Arrival

Time 2026-05-07 20:17
Airport Charles de Gaulle International Airport (LFPG)
Time Latitude Longitude Altitude Speed Heading
2026-05-07 19:14 51.47272 -0.48585 86 ft 0 kts 269°
2026-05-07 19:24 51.47272 -0.48561 88 ft 2 kts 268°
2026-05-07 19:24 51.47273 -0.48537 88 ft 2 kts 262°
2026-05-07 19:24 51.47276 -0.48514 88 ft 2 kts 241°
2026-05-07 19:25 51.47278 -0.48509 88 ft 2 kts 236°
2026-05-07 19:25 51.47287 -0.48491 90 ft 2 kts 216°
2026-05-07 19:25 51.47300 -0.48480 89 ft 2 kts 192°
2026-05-07 19:25 51.47312 -0.48477 87 ft 0 kts 174°
2026-05-07 19:28 51.47309 -0.48477 87 ft 2 kts 174°
2026-05-07 19:28 51.47243 -0.48472 89 ft 15 kts 181°
2026-05-07 19:28 51.47129 -0.48473 88 ft 18 kts 178°
2026-05-07 19:29 51.46992 -0.48472 89 ft 21 kts 180°
2026-05-07 19:29 51.46859 -0.48469 87 ft 13 kts 179°
2026-05-07 19:29 51.46829 -0.48469 87 ft 0 kts 180°
2026-05-07 19:34 51.46827 -0.48469 87 ft 2 kts 180°
2026-05-07 19:34 51.46736 -0.48468 87 ft 20 kts 179°
2026-05-07 19:34 51.46619 -0.48468 89 ft 10 kts 180°
2026-05-07 19:34 51.46601 -0.48468 89 ft 0 kts 179°
2026-05-07 19:37 51.46588 -0.48467 89 ft 7 kts 179°
2026-05-07 19:37 51.46496 -0.48460 89 ft 11 kts 158°
2026-05-07 19:37 51.46480 -0.48367 87 ft 0 kts 85°
2026-05-07 19:38 51.46480 -0.48366 87 ft 1 kts 85°
2026-05-07 19:38 51.46479 -0.48138 85 ft 53 kts 90°
2026-05-07 19:38 51.46482 -0.47154 84 ft 118 kts 89°
2026-05-07 19:38 51.46490 -0.45593 116 ft 161 kts 89°
2026-05-07 19:39 51.46540 -0.43783 712 ft 159 kts 89°
2026-05-07 19:39 51.46590 -0.42050 1563 ft 152 kts 91°
2026-05-07 19:39 51.46337 -0.40402 2102 ft 161 kts 120°
2026-05-07 19:39 51.45657 -0.38852 2548 ft 180 kts 130°
2026-05-07 19:40 51.44685 -0.37401 3004 ft 203 kts 150°
2026-05-07 19:40 51.43340 -0.36410 3625 ft 226 kts 159°
2026-05-07 19:40 51.41781 -0.35504 4340 ft 249 kts 162°
2026-05-07 19:40 51.40009 -0.35285 5156 ft 264 kts 191°
2026-05-07 19:41 51.38327 -0.36409 6262 ft 268 kts 212°
2026-05-07 19:41 51.36721 -0.37956 7374 ft 270 kts 208°
2026-05-07 19:41 51.34905 -0.38776 8507 ft 274 kts 183°
2026-05-07 19:41 51.33011 -0.38423 9572 ft 280 kts 171°
2026-05-07 19:42 51.31064 -0.37825 10513 ft 290 kts 171°
2026-05-07 19:42 51.29008 -0.37190 11024 ft 313 kts 171°
2026-05-07 19:42 51.26783 -0.36516 11525 ft 333 kts 171°
2026-05-07 19:42 51.24504 -0.35832 12413 ft 338 kts 171°
2026-05-07 19:43 51.22169 -0.35138 13401 ft 342 kts 171°
2026-05-07 19:43 51.19815 -0.34450 14314 ft 345 kts 171°
2026-05-07 19:43 51.17429 -0.33757 15126 ft 350 kts 171°
2026-05-07 19:43 51.15039 -0.33053 15934 ft 355 kts 171°
2026-05-07 19:44 51.12614 -0.32329 16458 ft 361 kts 171°
2026-05-07 19:44 51.10115 -0.31580 16587 ft 361 kts 171°
2026-05-07 19:44 51.07642 -0.30788 16805 ft 365 kts 165°
2026-05-07 19:44 51.05342 -0.29011 17608 ft 371 kts 146°
2026-05-07 19:45 51.03325 -0.26393 18416 ft 377 kts 141°
2026-05-07 19:45 51.01324 -0.23634 19108 ft 381 kts 141°
2026-05-07 19:45 50.99338 -0.20875 19820 ft 385 kts 141°
2026-05-07 19:45 50.97299 -0.18062 20508 ft 388 kts 141°
2026-05-07 19:46 50.95243 -0.15251 21197 ft 392 kts 141°
2026-05-07 19:46 50.93154 -0.12412 21887 ft 396 kts 141°
2026-05-07 19:46 50.91066 -0.09585 22561 ft 400 kts 142°
2026-05-07 19:46 50.88929 -0.06698 23224 ft 404 kts 142°
2026-05-07 19:47 50.86775 -0.03791 23851 ft 408 kts 142°
2026-05-07 19:47 50.84633 -0.00904 24410 ft 411 kts 142°
2026-05-07 19:47 50.82439 0.02049 24701 ft 414 kts 142°
2026-05-07 19:47 50.80241 0.05006 24822 ft 414 kts 142°
2026-05-07 19:48 50.78056 0.07941 24933 ft 415 kts 142°
2026-05-07 19:48 50.75844 0.10908 25035 ft 416 kts 142°
2026-05-07 19:48 50.73627 0.13877 25064 ft 416 kts 142°
2026-05-07 19:48 50.71441 0.16803 25057 ft 416 kts 142°
2026-05-07 19:49 50.69231 0.19756 25063 ft 416 kts 142°
2026-05-07 19:49 50.67018 0.22709 25066 ft 416 kts 142°
2026-05-07 19:49 50.64804 0.25660 25070 ft 416 kts 142°
2026-05-07 19:49 50.62614 0.28575 25069 ft 416 kts 142°
2026-05-07 19:50 50.60389 0.31533 25065 ft 416 kts 142°
2026-05-07 19:50 50.58172 0.34476 25065 ft 416 kts 142°
2026-05-07 19:50 50.55957 0.37413 25059 ft 415 kts 142°
2026-05-07 19:50 50.53756 0.40329 24801 ft 413 kts 142°
2026-05-07 19:51 50.51566 0.43226 24324 ft 410 kts 142°
2026-05-07 19:51 50.49405 0.46082 23764 ft 408 kts 142°
2026-05-07 19:51 50.47230 0.48952 23106 ft 405 kts 142°
2026-05-07 19:51 50.45071 0.51753 22459 ft 400 kts 143°
2026-05-07 19:52 50.42932 0.54447 21827 ft 397 kts 143°
2026-05-07 19:52 50.40779 0.57135 21200 ft 393 kts 143°
2026-05-07 19:52 50.38654 0.59790 20767 ft 387 kts 143°
2026-05-07 19:52 50.36540 0.62434 20500 ft 389 kts 143°
2026-05-07 19:53 50.34417 0.65094 20252 ft 390 kts 143°
2026-05-07 19:53 50.32306 0.67740 19998 ft 388 kts 143°
2026-05-07 19:53 50.30205 0.70373 19749 ft 386 kts 143°
2026-05-07 19:53 50.28107 0.73001 19504 ft 385 kts 143°
2026-05-07 19:54 50.26037 0.75588 19259 ft 384 kts 143°
2026-05-07 19:54 50.23944 0.78203 19017 ft 383 kts 143°
2026-05-07 19:54 50.21859 0.80803 18776 ft 382 kts 143°
2026-05-07 19:54 50.19782 0.83391 18534 ft 380 kts 143°
2026-05-07 19:55 50.17739 0.85935 18293 ft 379 kts 143°
2026-05-07 19:55 50.15677 0.88498 18018 ft 378 kts 143°
2026-05-07 19:55 50.13623 0.91048 17747 ft 376 kts 143°
2026-05-07 19:55 50.11603 0.93554 17479 ft 374 kts 143°
2026-05-07 19:56 50.09563 0.96082 17207 ft 373 kts 143°
2026-05-07 19:56 50.07533 0.98594 16935 ft 371 kts 143°
2026-05-07 19:56 50.05461 1.00911 16681 ft 359 kts 150°
2026-05-07 19:56 50.03303 1.02677 16435 ft 349 kts 156°
2026-05-07 19:57 50.01092 1.04320 16166 ft 352 kts 156°
2026-05-07 19:57 49.98892 1.05968 15912 ft 351 kts 156°
2026-05-07 19:57 49.96689 1.07624 15657 ft 349 kts 156°
2026-05-07 19:57 49.94535 1.09245 15407 ft 347 kts 156°
2026-05-07 19:58 49.92355 1.10884 15145 ft 346 kts 156°
2026-05-07 19:58 49.90179 1.12518 14996 ft 345 kts 156°
2026-05-07 19:58 49.88035 1.14126 14849 ft 345 kts 156°
2026-05-07 19:58 49.85863 1.15752 14699 ft 344 kts 156°
2026-05-07 19:59 49.83731 1.17347 14557 ft 344 kts 156°
2026-05-07 19:59 49.81575 1.18960 14409 ft 343 kts 156°
2026-05-07 19:59 49.79422 1.20567 14268 ft 342 kts 156°
2026-05-07 19:59 49.77273 1.22171 14116 ft 341 kts 156°
2026-05-07 20:00 49.75135 1.23765 13976 ft 341 kts 156°
2026-05-07 20:00 49.73015 1.25342 13828 ft 340 kts 156°
2026-05-07 20:00 49.70874 1.26935 13666 ft 340 kts 156°
2026-05-07 20:00 49.68737 1.28522 13504 ft 339 kts 156°
2026-05-07 20:01 49.66641 1.30079 13338 ft 338 kts 156°
2026-05-07 20:01 49.64508 1.31661 13186 ft 338 kts 156°
2026-05-07 20:01 49.62392 1.33243 13022 ft 337 kts 153°
2026-05-07 20:01 49.60477 1.35371 12869 ft 350 kts 142°
2026-05-07 20:02 49.58617 1.37787 12709 ft 344 kts 141°
2026-05-07 20:02 49.56830 1.40156 12485 ft 334 kts 141°
2026-05-07 20:02 49.55053 1.42497 12220 ft 336 kts 141°
2026-05-07 20:02 49.53291 1.44796 11976 ft 335 kts 141°
2026-05-07 20:03 49.51514 1.47100 11718 ft 332 kts 141°
2026-05-07 20:03 49.49740 1.49388 11463 ft 331 kts 141°
2026-05-07 20:03 49.47971 1.51665 11207 ft 330 kts 141°
2026-05-07 20:03 49.46227 1.53906 10965 ft 329 kts 141°
2026-05-07 20:04 49.44466 1.56171 10714 ft 328 kts 141°
2026-05-07 20:04 49.42709 1.58425 10471 ft 327 kts 141°
2026-05-07 20:04 49.40983 1.60637 10233 ft 326 kts 141°
2026-05-07 20:04 49.39260 1.62838 10111 ft 317 kts 141°
2026-05-07 20:05 49.37586 1.64980 10002 ft 305 kts 141°
2026-05-07 20:05 49.35989 1.67023 9853 ft 292 kts 141°
2026-05-07 20:05 49.34437 1.69008 9482 ft 288 kts 141°
2026-05-07 20:05 49.32921 1.70943 9076 ft 287 kts 141°
2026-05-07 20:06 49.31387 1.72899 8644 ft 285 kts 141°
2026-05-07 20:06 49.29853 1.74828 8248 ft 283 kts 143°
2026-05-07 20:06 49.28182 1.76411 7837 ft 281 kts 154°
2026-05-07 20:06 49.26389 1.77616 7442 ft 280 kts 157°
2026-05-07 20:07 49.24638 1.78783 7150 ft 276 kts 156°
2026-05-07 20:07 49.22859 1.79978 6915 ft 279 kts 156°
2026-05-07 20:07 49.21086 1.81174 6654 ft 276 kts 156°
2026-05-07 20:07 49.19354 1.82362 6284 ft 275 kts 152°
2026-05-07 20:08 49.17783 1.84018 5893 ft 273 kts 142°
2026-05-07 20:08 49.16290 1.85809 5513 ft 270 kts 141°
2026-05-07 20:08 49.14832 1.87556 5190 ft 267 kts 142°
2026-05-07 20:08 49.13370 1.89308 5059 ft 269 kts 142°
2026-05-07 20:09 49.11895 1.91074 5003 ft 267 kts 142°
2026-05-07 20:09 49.10431 1.92828 4995 ft 267 kts 142°
2026-05-07 20:09 49.08982 1.94563 5002 ft 267 kts 142°
2026-05-07 20:10 49.06052 1.98065 5005 ft 267 kts 142°
2026-05-07 20:10 49.04582 1.99820 5000 ft 267 kts 142°
2026-05-07 20:10 49.03120 2.01566 4997 ft 267 kts 142°
2026-05-07 20:10 49.01670 2.03298 4998 ft 267 kts 142°
2026-05-07 20:11 49.00248 2.05132 4990 ft 267 kts 130°
2026-05-07 20:11 48.99203 2.07483 4995 ft 268 kts 122°
2026-05-07 20:11 48.98225 2.09872 4999 ft 267 kts 122°
2026-05-07 20:11 48.97414 2.12402 4999 ft 267 kts 105°
2026-05-07 20:12 48.97153 2.15201 5003 ft 267 kts 91°
2026-05-07 20:12 48.97216 2.18045 5000 ft 267 kts 85°
2026-05-07 20:12 48.97380 2.20834 4953 ft 267 kts 85°
2026-05-07 20:12 48.97528 2.23640 4664 ft 263 kts 85°
2026-05-07 20:13 48.97678 2.26415 4292 ft 261 kts 85°
2026-05-07 20:13 48.97823 2.29131 3937 ft 259 kts 85°
2026-05-07 20:13 48.97968 2.31855 3588 ft 256 kts 85°
2026-05-07 20:13 48.98112 2.34546 3226 ft 252 kts 85°
2026-05-07 20:14 48.98253 2.37169 2893 ft 242 kts 85°
2026-05-07 20:14 48.98386 2.39656 2574 ft 234 kts 85°
2026-05-07 20:14 48.98516 2.42092 2262 ft 226 kts 85°
2026-05-07 20:14 48.98640 2.44406 1959 ft 215 kts 85°
2026-05-07 20:15 48.98755 2.46560 1667 ft 192 kts 85°
2026-05-07 20:15 48.98857 2.48463 1453 ft 168 kts 85°
2026-05-07 20:15 48.98945 2.50112 1230 ft 144 kts 85°
2026-05-07 20:15 48.99019 2.51526 1028 ft 128 kts 85°
2026-05-07 20:16 48.99092 2.52857 860 ft 127 kts 84°
2026-05-07 20:16 48.99158 2.54171 693 ft 123 kts 85°
2026-05-07 20:16 48.99231 2.55458 532 ft 123 kts 84°
2026-05-07 20:16 48.99302 2.56754 390 ft 123 kts 84°
2026-05-07 20:17 48.99369 2.57970 354 ft 95 kts 85°
2026-05-07 20:17 48.99406 2.58677 351 ft 44 kts 85°
2026-05-07 20:17 48.99435 2.59103 353 ft 38 kts 79°
2026-05-07 20:17 48.99523 2.59435 360 ft 21 kts 64°
2026-05-07 20:18 48.99573 2.59599 360 ft 11 kts 62°
2026-05-07 20:18 48.99618 2.59697 353 ft 11 kts 25°
2026-05-07 20:18 48.99677 2.59678 353 ft 9 kts 352°
2026-05-07 20:18 48.99749 2.59680 354 ft 12 kts
2026-05-07 20:19 48.99836 2.59666 353 ft 9 kts
2026-05-07 20:19 48.99903 2.59666 354 ft 12 kts 359°
2026-05-07 20:19 48.99977 2.59652 356 ft 11 kts 351°
2026-05-07 20:19 49.00060 2.59633 354 ft 13 kts 347°
2026-05-07 20:20 49.00077 2.59507 354 ft 15 kts 263°
2026-05-07 20:20 49.00066 2.59327 359 ft 19 kts 266°
2026-05-07 20:20 49.00054 2.59109 354 ft 22 kts 265°
2026-05-07 20:20 49.00041 2.58865 354 ft 25 kts 264°
2026-05-07 20:21 49.00028 2.58599 354 ft 26 kts 268°
2026-05-07 20:21 49.00014 2.58369 360 ft 16 kts 264°
2026-05-07 20:21 49.00003 2.58198 354 ft 18 kts 264°
2026-05-07 20:21 48.99995 2.58062 354 ft 21 kts 264°
2026-05-07 20:22 48.99984 2.57763 354 ft 8 kts 268°
2026-05-07 20:22 48.99983 2.57752 354 ft 3 kts 267°
2026-05-07 20:22 48.99977 2.57646 354 ft 14 kts 264°
2026-05-07 20:22 48.99967 2.57472 354 ft 19 kts 265°
2026-05-07 20:23 48.99956 2.57254 354 ft 22 kts 267°
2026-05-07 20:23 48.99956 2.57042 355 ft 13 kts 294°
2026-05-07 20:23 49.00023 2.56989 353 ft 13 kts 357°
2026-05-07 20:23 49.00103 2.56973 360 ft 11 kts 336°
2026-05-07 20:24 49.00126 2.56873 353 ft 11 kts 276°
2026-05-07 20:24 49.00123 2.56746 353 ft 5 kts 261°
2026-05-07 20:24 49.00123 2.56737 353 ft 4 kts 261°
2026-05-07 20:24 49.00117 2.56661 357 ft 9 kts 278°
2026-05-07 20:25 49.00149 2.56648 355 ft 5 kts 34°
2026-05-07 20:25 49.00178 2.56657 357 ft 5 kts
2026-05-07 20:25 49.00200 2.56665 353 ft 0 kts 12°